[[{"header":{"parameterUnit":"m.s-1","parameterCategory":1,"la1":30.2991,"la2":30.254,"lo1":-89.0895,"lo2":-89.0444,"dy":0.0017,"dx":0.0017,"nx":28,"ny":28,"refTime":"2025-01-05T03:00:00:Z","depth":0,"parameterNumber":2,"parameterNumberName":"U-component_of_WINDS"},"data":[0,0,0,0,0,0,0,0,0,0,0,0,0,0,0,0,0,0,0,0,0,0,0,0,0,0,0,0,0,0,0,0,0,0,0,0,0,0,0,0,0,0,0,0,0,0,0,0,0,0,0,0,0,0,0,0,0,0,4.365,4.365,0,4.3702,4.3702,4.3703,4.3664,4.3662,4.366,4.3659,4.3711,4.3714,4.3716,0,0,0,0,0,0,0,0,0,0,0,0,0,4.3517,4.352,4.365,4.365,4.3651,4.3702,4.3702,4.3703,4.3664,4.3662,4.366,4.3658,4.371,4.3713,4.3717,0,0,0,0,0,0,0,0,0,0,0,0,0,4.3572,4.3521,4.365,4.3638,4.3637,4.3702,4.3702,4.3703,4.3664,4.3662,4.3659,4.3657,4.3709,4.3713,4.3717,4.3796,0,0,4.3731,4.3733,0,0,0,0,0,0,0,0,4.3569,4.3577,4.3639,4.3639,4.3638,4.3674,4.3675,4.3734,4.3665,4.3654,4.3659,4.3656,4.37,4.3705,4.3721,4.3798,4.3801,4.3731,4.3734,4.3736,4.3737,0,0,0,0,0,0,0,4.3566,4.3575,4.367,4.364,4.3639,4.363,4.3635,4.3686,4.3691,4.3655,4.3652,4.3659,4.37,4.3716,4.3722,4.3801,4.3731,4.3735,4.3738,4.374,4.3949,4.3951,0,0,0,0,0,0,4.3563,4.3572,4.3669,4.3672,4.3597,4.3634,4.364,4.3665,4.369,4.3692,4.3661,4.3657,4.371,4.3716,4.3723,4.3818,4.3736,4.374,4.3743,4.3946,4.3949,4.3952,0,0,0,0,0,0,4.356,4.3572,4.3666,4.3621,4.3633,4.3639,4.3668,4.3667,4.3684,4.3695,4.3695,4.3677,4.3708,4.3717,4.3779,4.382,4.3742,4.3746,4.3942,4.3947,4.3951,4.4008,0,0,0,0,0,0,4.3557,4.3571,4.3601,4.3622,4.3635,4.3721,4.367,4.367,4.3692,4.3687,4.371,4.3712,4.3707,4.3772,4.3783,4.3824,4.375,4.3939,4.3944,4.395,4.4003,4.4014,4.4024,0,0,0,0,0,4.3552,4.3614,4.3602,4.3614,4.3672,4.3723,4.3731,4.3725,4.3695,4.3725,4.3733,4.3711,4.3814,4.3779,4.3791,4.3834,4.3936,4.3943,4.3949,4.3998,4.4012,4.4024,0,0,0,0,0,0,4.3596,4.3617,4.3604,4.3675,4.3698,4.3717,4.3754,4.3739,4.377,4.3764,4.3755,4.3761,4.3826,4.3836,4.3797,4.3913,4.387,4.3879,4.3903,4.3917,4.3927,4.3923,4.3753,0,0,0,0,0,4.3615,4.3654,4.367,4.3731,4.3744,4.3747,4.3769,4.3763,4.3786,4.3795,4.3807,4.383,4.3868,4.3893,4.3928,4.4005,4.401,4.404,4.4051,4.4059,4.4067,4.411,4.4124,4.3974,4.3974,4.3974,0,0,4.3652,4.3668,4.3694,4.3741,4.3758,4.38,4.3756,4.3801,4.3832,4.3802,4.3861,4.3871,4.3897,4.3967,4.3998,4.3977,4.411,4.4068,4.4074,4.4078,4.4118,4.4133,4.4145,4.3978,4.3977,4.3977,0,0,4.3742,4.3758,4.3812,4.383,4.3857,4.386,4.3873,4.3895,4.39,4.396,4.3939,4.3976,4.4041,4.406,4.4079,4.418,4.4161,4.4191,4.4246,4.4288,4.43,4.431,4.4347,4.436,4.4199,4.4199,4.42,0,4.3785,4.3848,4.3841,4.3889,4.3911,4.3887,4.3942,4.396,4.3997,4.4012,4.3989,4.4071,4.4086,4.4161,4.4186,4.4202,4.4217,4.4188,4.4299,4.4309,4.4319,4.4354,4.4368,4.4203,4.4203,4.4202,4.4202,0,4.39,4.3944,4.3984,4.4022,4.4048,4.4099,4.4101,4.4128,4.412,4.4126,4.4188,4.4206,4.4245,4.4263,4.4254,4.4338,4.4324,4.43,4.4257,4.4337,4.437,4.4383,4.4208,4.4207,4.4206,4.4205,0,0,4.4018,4.4053,4.4068,4.4085,4.4115,4.4148,4.4199,4.4239,4.4263,4.429,4.4333,4.4389,4.4368,4.4389,4.4383,4.442,4.4501,4.4392,4.4392,4.4412,4.4595,4.4613,4.4628,4.4489,4.4491,4.4493,4.4593,0,4.411,4.4199,4.4195,4.4278,4.4319,4.4299,4.4343,4.4366,4.4373,4.4409,4.4417,4.4458,4.4426,4.4439,4.4474,4.4483,4.4537,4.4476,4.4529,4.4531,4.4523,4.4645,4.4664,4.4757,4.4606,4.4608,4.4609,0,4.4229,4.4261,4.4349,4.4374,4.4391,4.4431,4.4468,4.4503,4.4529,4.4532,4.4557,4.4546,4.4598,4.4555,4.4627,4.4586,4.4608,4.4616,4.4619,4.4624,4.4575,4.4654,4.4786,4.48,4.4629,4.4628,4.4626,0,4.4307,4.4372,4.4434,4.4449,4.448,4.4509,4.4523,4.4547,4.4571,4.4604,4.462,4.4658,4.4679,4.4709,4.4709,4.4677,4.4783,4.4739,4.4787,4.4787,4.4809,4.4808,4.4948,4.4823,4.4823,4.4823,4.4823,0,4.441,4.4465,4.4469,4.4507,4.4568,4.4564,4.4625,4.4636,4.4658,4.4698,4.4682,4.472,4.4718,4.4757,4.4757,4.4818,4.4827,4.4831,4.4831,4.4833,4.4832,4.4846,4.484,4.4827,4.4826,4.4825,4.4824,0,4.4507,4.4513,4.4578,4.4603,4.461,4.4654,4.4675,4.4712,4.4718,4.4769,4.4781,4.4791,4.4836,4.4839,4.4891,4.4891,4.4965,4.4957,4.4956,4.4955,4.5003,4.4999,4.5157,4.5178,4.504,4.5041,4.5042,0,4.4573,4.4614,4.4644,4.467,4.4686,4.4728,4.4754,4.4752,4.478,4.4815,4.4847,4.4891,4.4925,4.4998,4.501,4.505,4.5044,4.5097,4.5049,4.5051,4.5045,4.5043,4.5048,4.5105,4.5107,4.5108,4.5109,0,4.4689,4.469,4.4728,4.4767,4.4799,4.4829,4.4858,4.488,4.4882,4.4914,4.496,4.4988,4.5042,4.5085,4.5125,4.514,4.5126,4.5124,4.5138,4.514,4.5138,4.5141,4.4982,4.512,4.5119,4.5118,4.5118,4.5117,4.4773,4.4809,4.4837,4.488,4.4902,4.4929,4.4965,4.4977,4.5016,4.506,4.5057,4.5109,4.5136,4.5188,4.5206,4.5247,4.5229,4.5248,4.5253,4.5257,4.5263,4.5132,4.5254,4.5253,4.5253,4.5253,4.5253,0,4.4889,4.4906,4.4945,4.4987,4.5021,4.5006,4.5037,4.5067,4.5113,4.514,4.5175,4.5229,4.5272,4.5289,4.5331,4.5361,4.5355,4.5372,4.537,4.5374,4.5276,4.5261,4.5376,4.5376,4.5376,4.5376,4.5376,4.5376,4.4953,4.5015,4.502,4.5093,4.511,4.5161,4.518,4.5206,4.5228,4.529,4.5326,4.5336,4.536,4.5404,4.5443,4.5447,4.5464,4.5483,4.5484,4.5393,4.538,4.5368,4.5354,4.5487,4.5487,4.5579,4.5579,4.558]},{"header":{"parameterUnit":"m.s-1","parameterCategory":1,"la1":30.2991,"la2":30.254,"lo1":-89.0895,"lo2":-89.0444,"dy":0.0017,"dx":0.0017,"nx":28,"ny":28,"refTime":"2025-01-05T03:00:00:Z","depth":0,"parameterNumber":3,"parameterNumberName":"V-component_of_WINDS"},"data":[0,0,0,0,0,0,0,0,0,0,0,0,0,0,0,0,0,0,0,0,0,0,0,0,0,0,0,0,0,0,0,0,0,0,0,0,0,0,0,0,0,0,0,0,0,0,0,0,0,0,0,0,0,0,0,0,0,0,-7.1408,-7.141,0,-7.1554,-7.1556,-7.1558,-7.1549,-7.1546,-7.1544,-7.1542,-7.1687,-7.1693,-7.1699,0,0,0,0,0,0,0,0,0,0,0,0,0,-7.1119,-7.1124,-7.1408,-7.141,-7.1412,-7.1554,-7.1556,-7.1558,-7.1549,-7.1546,-7.1544,-7.1541,-7.1685,-7.1692,-7.1699,0,0,0,0,0,0,0,0,0,0,0,0,0,-7.1252,-7.1126,-7.1408,-7.1425,-7.1428,-7.1554,-7.1556,-7.1559,-7.155,-7.1546,-7.1543,-7.154,-7.1683,-7.1691,-7.17,-7.1818,0,0,-7.1727,-7.1731,0,0,0,0,0,0,0,0,-7.1245,-7.1263,-7.142,-7.1424,-7.1427,-7.153,-7.1507,-7.1645,-7.155,-7.1503,-7.1542,-7.1539,-7.1637,-7.1649,-7.1684,-7.1824,-7.1831,-7.1728,-7.1733,-7.1737,-7.1739,0,0,0,0,0,0,0,-7.1236,-7.1257,-7.1466,-7.1423,-7.1427,-7.1424,-7.1439,-7.1533,-7.1586,-7.1507,-7.1507,-7.1524,-7.1638,-7.1675,-7.1687,-7.1833,-7.1727,-7.1735,-7.174,-7.1744,-7.2079,-7.2082,0,0,0,0,0,0,-7.1223,-7.1249,-7.1461,-7.147,-7.1327,-7.1432,-7.1449,-7.15,-7.1585,-7.1595,-7.1527,-7.1523,-7.1662,-7.1677,-7.1692,-7.1836,-7.1737,-7.1745,-7.175,-7.2075,-7.208,-7.2084,0,0,0,0,0,0,-7.1217,-7.1242,-7.1455,-7.136,-7.1387,-7.144,-7.1498,-7.1505,-7.1542,-7.16,-7.1609,-7.1555,-7.166,-7.168,-7.1787,-7.1841,-7.1749,-7.1757,-7.2071,-7.2077,-7.2082,-7.2125,0,0,0,0,0,0,-7.1209,-7.124,-7.1286,-7.1361,-7.1392,-7.1549,-7.1501,-7.151,-7.1557,-7.1554,-7.1629,-7.1638,-7.1659,-7.1774,-7.1796,-7.1851,-7.1763,-7.2066,-7.2073,-7.208,-7.2119,-7.2131,-7.2142,0,0,0,0,0,-7.1198,-7.1291,-7.1288,-7.1314,-7.145,-7.1552,-7.157,-7.1593,-7.1562,-7.1608,-7.1646,-7.1636,-7.1832,-7.1785,-7.181,-7.1869,-7.2063,-7.2071,-7.2079,-7.2114,-7.2129,-7.2141,0,0,0,0,0,0,-7.1218,-7.1301,-7.1299,-7.1418,-7.1479,-7.155,-7.1609,-7.1608,-7.1677,-7.1671,-7.1696,-7.1713,-7.1821,-7.1855,-7.1802,-7.1988,-7.1943,-7.1957,-7.1961,-7.1976,-7.1987,-7.1976,-7.1771,0,0,0,0,0,-7.1237,-7.1314,-7.1381,-7.148,-7.1511,-7.1555,-7.16,-7.1614,-7.1676,-7.1701,-7.1746,-7.1807,-7.1882,-7.1931,-7.2003,-7.2124,-7.214,-7.2177,-7.2188,-7.2197,-7.2208,-7.2276,-7.2293,-7.2111,-7.211,-7.211,0,0,-7.1275,-7.133,-7.1377,-7.1486,-7.1534,-7.1613,-7.1576,-7.166,-7.1719,-7.1713,-7.1818,-7.1854,-7.1923,-7.2038,-7.2091,-7.207,-7.2263,-7.2208,-7.2215,-7.2221,-7.2286,-7.2304,-7.2319,-7.2116,-7.2115,-7.2114,0,0,-7.1386,-7.1435,-7.1524,-7.1574,-7.1648,-7.1677,-7.1699,-7.1772,-7.1796,-7.1902,-7.19,-7.1969,-7.2098,-7.2148,-7.219,-7.2322,-7.2315,-7.2345,-7.2404,-7.247,-7.2484,-7.2497,-7.2544,-7.2561,-7.2356,-7.2356,-7.2356,0,-7.1424,-7.1544,-7.1569,-7.1655,-7.1703,-7.1704,-7.1794,-7.184,-7.1934,-7.1967,-7.1943,-7.2106,-7.2152,-7.228,-7.2312,-7.2346,-7.2371,-7.2336,-7.248,-7.2493,-7.2506,-7.2551,-7.2569,-7.2359,-7.2358,-7.2358,-7.2358,0,-7.1587,-7.167,-7.1732,-7.1825,-7.1881,-7.1968,-7.2006,-7.2059,-7.2068,-7.2099,-7.2208,-7.2264,-7.2348,-7.238,-7.2388,-7.2509,-7.2494,-7.2475,-7.2431,-7.2526,-7.2569,-7.2587,-7.2363,-7.2362,-7.2361,-7.236,0,0,-7.1712,-7.182,-7.1843,-7.1886,-7.1969,-7.2033,-7.2121,-7.2205,-7.225,-7.2315,-7.2389,-7.2499,-7.2483,-7.2531,-7.2545,-7.2603,-7.2705,-7.2577,-7.2579,-7.2599,-7.2843,-7.2856,-7.2876,-7.2702,-7.2706,-7.2708,-7.2837,0,-7.1832,-7.1989,-7.2015,-7.2152,-7.2229,-7.2233,-7.2309,-7.2368,-7.24,-7.247,-7.2505,-7.2583,-7.2555,-7.2585,-7.2642,-7.2681,-7.2754,-7.2672,-7.277,-7.2774,-7.2753,-7.2899,-7.2913,-7.3032,-7.2854,-7.2857,-7.2859,0,-7.1991,-7.2063,-7.2209,-7.2283,-7.2317,-7.2385,-7.2466,-7.2532,-7.2599,-7.2619,-7.2674,-7.2682,-7.2773,-7.2725,-7.285,-7.2794,-7.2836,-7.2861,-7.2866,-7.2876,-7.2822,-7.2912,-7.307,-7.3088,-7.2886,-7.2884,-7.2882,0,-7.2069,-7.2202,-7.2306,-7.2343,-7.2432,-7.2481,-7.252,-7.2584,-7.2634,-7.2704,-7.2737,-7.2816,-7.2859,-7.292,-7.2949,-7.2912,-7.3072,-7.3027,-7.3091,-7.309,-7.3124,-7.3121,-7.329,-7.3151,-7.3151,-7.315,-7.315,0,-7.2199,-7.2288,-7.2343,-7.2407,-7.2507,-7.2537,-7.2634,-7.2672,-7.273,-7.2801,-7.2808,-7.2874,-7.2909,-7.2981,-7.3004,-7.3105,-7.3124,-7.3142,-7.3147,-7.3141,-7.3139,-7.3169,-7.3161,-7.3155,-7.3154,-7.3153,-7.3152,0,-7.2302,-7.2342,-7.2457,-7.2533,-7.2555,-7.2625,-7.269,-7.2752,-7.2785,-7.2875,-7.2898,-7.2949,-7.3034,-7.307,-7.3173,-7.3189,-7.3305,-7.3303,-7.3283,-7.3284,-7.3346,-7.334,-7.354,-7.3568,-7.341,-7.3412,-7.3413,0,-7.2383,-7.2452,-7.2536,-7.2586,-7.2627,-7.2706,-7.2758,-7.279,-7.2843,-7.2926,-7.2979,-7.3064,-7.3134,-7.327,-7.3315,-7.3395,-7.3396,-7.3461,-7.3407,-7.34,-7.3397,-7.3393,-7.34,-7.347,-7.3471,-7.3473,-7.3474,0,-7.2521,-7.2539,-7.2613,-7.2697,-7.2759,-7.2825,-7.2889,-7.2929,-7.2971,-7.3031,-7.3119,-7.3173,-7.3281,-7.3365,-7.3448,-7.3487,-7.3488,-7.349,-7.3509,-7.3504,-7.3489,-7.3499,-7.3309,-7.3485,-7.3484,-7.3483,-7.3483,-7.3482,-7.2616,-7.2678,-7.2748,-7.2832,-7.2884,-7.2945,-7.3008,-7.305,-7.3125,-7.3216,-7.323,-7.3324,-7.3391,-7.3503,-7.3545,-7.3619,-7.3602,-7.363,-7.3637,-7.3643,-7.3647,-7.3478,-7.3634,-7.3634,-7.3634,-7.3633,-7.3633,0,-7.2755,-7.2801,-7.2878,-7.297,-7.3036,-7.3033,-7.3105,-7.316,-7.3243,-7.3306,-7.3376,-7.3478,-7.3561,-7.3614,-7.3697,-7.3746,-7.3748,-7.3767,-7.3763,-7.3773,-7.3657,-7.3632,-7.3764,-7.3764,-7.3764,-7.3764,-7.3764,-7.3764,-7.2835,-7.2941,-7.2966,-7.3098,-7.3143,-7.3237,-7.3278,-7.3334,-7.3385,-7.3499,-7.3569,-7.3604,-7.3663,-7.3752,-7.3827,-7.3841,-7.3871,-7.3891,-7.3903,-7.3794,-7.3781,-7.3768,-7.3745,-7.3897,-7.3898,-7.4013,-7.4014,-7.4015]}]]